Flag for U.S.A. Weather past 2 weeks in Manhattan, Kansas, U.S.A.

Now
11 °F

Clear.


Feels Like: 11 °F
Forecast: 10 / 36 °F
Wind: No wind

Location: Manhattan Municipal Airport

Current Time: Mar 5, 2015 at 6:13:06 AM

Latest Report: Mar 5, 2015 at 5:52 AM


Visibility: 10 mi

Pressure: 30.58 "Hg

Humidity: 70%

Dew point: 3 °F

Location of ManhattanLocation

Historic Weather in Manhattan — Graph

°F

Manhattan temperature yesterday

Maximum temperature yesterday: 33 °F (at 1:52 PM)
Minimum temperature yesterday: 18 °F (at 11:52 PM)
Average temperature yesterday: 25 °F

Past Weeks' High & Low Weather Summary

 TemperatureHumidityPressure
High55 °F (Feb 25, 11:52 AM)100% (Feb 21, 4:52 AM)30.84 "Hg (Feb 21, 4:52 AM)
Low5 °F (Feb 18, 9:52 PM)26% (Mar 4, 1:52 PM)29.67 "Hg (Mar 3, 6:52 AM)
Average24 °F65%30.31 "Hg
* Reported Feb 18 4:52 AM — Mar 5 4:52 AM, Manhattan, Weather by CustomWeather, © 2015

Note: Actual official high and low records may vary slightly from our data, if they occured in-between our weather recording intervals... More about our weather records

Advertising

Manhattan weather history for previous 24 hours

 ConditionsComfort  
Time TempWeatherWind HumidityBarometerVisibility
4:52 AM
Thu, Mar 5
12 °FClear.No wind70%30.56 "Hg10 mi
3:52 AM14 °FClear.3 mph64%30.54 "Hg10 mi
2:52 AM15 °FClear.5 mph61%30.53 "Hg10 mi
1:52 AM15 °FClear.5 mph61%30.51 "Hg10 mi
12:52 AM19 °FClear.6 mph52%30.50 "Hg10 mi
11:52 PM
Wed, Mar 4
18 °FClear.No wind59%30.48 "Hg10 mi
10:52 PM20 °FClear.No wind55%30.47 "Hg10 mi
9:52 PM21 °FClear.No wind57%30.47 "Hg10 mi
8:52 PM21 °FClear.No wind60%30.45 "Hg10 mi
7:52 PM26 °FClear.3 mph46%30.42 "Hg10 mi
6:52 PM29 °FClear.7 mph41%30.39 "Hg10 mi
5:52 PM30 °FSunny.7 mph34%30.39 "Hg10 mi
4:52 PM32 °FSunny.7 mph30%30.33 "Hg10 mi
3:52 PM32 °FSunny.10 mph29%30.30 "Hg10 mi
2:52 PM32 °FSunny.9 mph26%30.35 "Hg10 mi
1:52 PM33 °FSunny.10 mph26%30.34 "Hg10 mi
12:52 PM31 °FPassing clouds.9 mph35%30.37 "Hg10 mi
11:52 AM29 °FSunny.12 mph34%30.38 "Hg10 mi
10:52 AM28 °FSunny.15 mph43%30.36 "Hg10 mi
9:52 AM25 °FPassing clouds.10 mph53%30.38 "Hg10 mi
8:52 AM23 °FPartly sunny.7 mph65%30.36 "Hg10 mi
7:52 AM21 °FOvercast.10 mph71%30.32 "Hg10 mi
6:52 AM21 °FOvercast.13 mph68%30.30 "Hg10 mi
Weather by CustomWeather, © 2015

See weather overviewHow to use our weather pages